Location: Columbia
(38.9520°N, 92.3340°W)
Time: 22:36:10
(UTC-05:00)

Meteor 1-4 Rocket - Visible Passes

Search period start: 17 September 2014 00:00
Search period end: 27 September 2014 00:00
Orbit: 471 x 535 km, 81.2° (Epoch: 17 September)

Date Brightness Start Highest point End Pass type
(mag) Time Alt. Az. Time Alt. Az. Time Alt. Az.
17 Sep 4.8 20:40:21 10° NNW 20:43:47 29° W 20:47:10 10° SSW visible
18 Sep 4.3 20:21:07 10° NNW 20:24:48 39° W 20:28:26 10° SSW visible
19 Sep 3.6 20:01:57 10° NNW 20:05:48 54° W 20:09:35 10° S visible
20 Sep 3.0 19:42:50 10° NNW 19:46:47 75° W 19:50:38 10° S visible
23 Sep 6.3 20:23:13 10° WNW 20:24:39 12° W 20:26:05 10° WSW visible
24 Sep 6.0 20:03:18 10° NW 20:05:41 16° W 20:08:03 10° SW visible
25 Sep 5.8 19:43:43 10° NW 19:46:41 21° W 19:49:36 10° SW visible
26 Sep 5.3 19:24:18 10° NNW 19:27:40 28° W 19:30:57 10° SSW visible
